DW8188 Weather Reports


Display with metric or nautical units.
time (UTC)temp
F
wind
direction
speed
MPH
gust
MPH
rain 1hr
in
rain 24hr
in
rain mn
in
humidity
%
barometer
mb
20170817170858 80 315 0.0 0.0 0.00 0.00 0.00 57 1014.2
20170817165858 81 293 0.0 0.0 0.00 0.00 0.00 53 1014.3
20170817164858 85 203 0.0 0.0 0.00 0.00 0.00 51 1014.3
20170817163858 85 68 0.0 2.0 0.00 0.00 0.00 48 1014.3
20170817162858 84 270 0.0 2.0 0.00 0.00 0.00 49 1014.3
20170817161858 84 158 0.0 4.0 0.00 0.00 0.00 49 1014.3
20170817151858 85 90 0.0 5.0 0.00 0.00 0.00 48 1014.5
20170817150858 84 113 0.0 0.0 0.00 0.00 0.00 50 1014.6
20170817145858 84 203 4.0 7.0 0.00 0.00 0.00 49 1014.6
20170817143858 84 135 2.0 8.0 0.00 0.00 0.00 49 1015.0
20170817141858 85 203 0.0 4.0 0.00 0.00 0.00 48 1015.0
20170817133858 83 90 2.0 5.0 0.00 0.00 0.00 50 1015.2
20170817132858 83 180 1.0 5.0 0.00 0.00 0.00 51 1015.3
20170817130858 83 68 0.0 9.0 0.00 0.00 0.00 52 1015.5
20170817125858 83 68 4.0 6.0 0.00 0.00 0.00 52 1015.6
20170817123858 83 113 4.0 6.0 0.00 0.00 0.00 52 1015.6
20170817122858 83 90 4.0 5.0 0.00 0.00 0.00 52 1015.9
20170817121859 83 90 0.0 5.0 0.00 0.00 0.00 51 1015.9
20170817120858 82 113 6.0 10.0 0.00 0.00 0.00 53 1015.8
20170817113858 82 90 0.0 6.0 0.00 0.00 0.00 52 1016.2
20170817112858 82 90 2.0 7.0 0.00 0.00 0.00 52 1016.3
20170817111858 82 90 1.0 4.0 0.00 0.00 0.00 52 1016.3
20170817110858 82 113 5.0 6.0 0.00 0.00 0.00 52 1016.3
20170817105858 81 135 0.0 5.0 0.00 0.00 0.00 54 1016.6
20170817102858 80 135 6.0 8.0 0.00 0.00 0.00 56 1016.7
20170817100858 80 45 0.0 4.0 0.00 0.00 0.00 56 1016.8
20170817094858 79 225 0.0 3.0 0.00 0.00 0.00 55 1017.0
20170817082858 77 113 2.0 5.0 0.00 0.00 0.00 57 1017.1
20170817081858 77 113 0.0 4.0 0.00 0.00 0.00 59 1017.0
20170817074858 76 90 0.0 2.0 0.00 0.00 0.00 61 1016.9
20170817073858 75 68 0.0 0.0 0.00 0.00 0.00 63 1016.8
20170817072858 75 45 0.0 0.0 0.00 0.00 0.00 65 1016.9
20170817070858 74 45 0.0 0.0 0.00 0.00 0.00 71 1016.6
20170817065858 74 23 0.0 0.0 0.00 0.00 0.00 73 1016.6
20170817064858 73 293 0.0 0.0 0.00 0.00 0.00 74 1016.5
20170817063858 72 293 0.0 0.0 0.00 0.00 0.00 73 1016.5
20170817062858 72 293 0.0 0.0 0.00 0.00 0.00 70 1016.3
20170817061858 72 315 0.0 0.0 0.00 0.00 0.00 70 1016.3
20170817060858 72 315 0.0 0.0 0.00 0.00 0.00 70 1016.2
20170817055858 71 315 0.0 0.0 0.00 0.00 0.00 69 1016.2
20170817052858 71 293 0.0 0.0 0.00 0.00 0.00 67 1016.0
20170817042858 69 270 0.0 0.0 0.00 0.00 0.00 69 1015.7
20170817040902 68 270 0.0 0.0 0.00 0.00 0.00 70 1015.5
20170817035858 69 293 0.0 0.0 0.00 0.00 0.00 70 1015.6
20170817034858 68 293 0.0 0.0 0.00 0.00 0.00 71 1015.6
20170817033858 68 0 0.0 0.0 0.00 0.00 0.00 72 1015.5
20170817030858 68 315 0.0 0.0 0.00 0.00 0.00 71 1015.4
20170817025858 69 0 0.0 0.0 0.00 0.00 0.00 70 1015.3
20170817023903 70 293 0.0 0.0 0.00 0.00 0.00 68 1015.2
20170817022858 70 293 0.0 0.0 0.00 0.00 0.00 69 1015.3
20170817020858 68 293 0.0 0.0 0.00 0.00 0.00 72 1015.5
20170817013858 68 293 0.0 0.0 0.00 0.00 0.00 70 1015.4
20170817003858 69 203 0.0 0.0 0.00 0.00 0.00 69 1015.4
20170817002858 69 225 0.0 0.0 0.00 0.00 0.00 68 1015.3
20170817001858 71 338 0.0 0.0 0.00 0.00 0.00 65 1015.4
20170817000858 72 270 0.0 0.0 0.00 0.00 0.00 64 1015.2
20170816235858 70 293 0.0 0.0 0.00 0.00 0.00 66 1015.2
20170816223858 72 293 0.0 0.0 0.00 0.00 0.00 62 1015.3
20170816222858 74 293 0.0 0.0 0.00 0.00 0.00 59 1015.3
20170816220858 74 293 0.0 0.0 0.00 0.00 0.00 61 1015.3
20170816213858 72 293 0.0 0.0 0.00 0.00 0.00 64 1015.3
20170816212858 71 293 0.0 0.0 0.00 0.00 0.00 66 1015.2
20170816210858 71 315 0.0 0.0 0.00 0.00 0.00 67 1015.1
20170816205858 71 315 0.0 0.0 0.00 0.00 0.00 66 1015.1
20170816204858 72 293 0.0 0.0 0.00 0.00 0.00 65 1015.2
20170816203858 72 293 0.0 0.0 0.00 0.00 0.00 65 1015.1
20170816190858 74 293 0.0 0.0 0.00 0.00 0.00 62 1015.0
20170816185859 73 293 0.0 0.0 0.00 0.00 0.00 60 1014.9
20170816184858 74 293 0.0 0.0 0.00 0.00 0.00 60 1014.9
20170816175858 79 315 0.0 0.0 0.00 0.00 0.00 58 1014.8
20170816174858 80 338 0.0 0.0 0.00 0.00 0.00 57 1014.7
20170816172858 80 270 0.0 0.0 0.00 0.00 0.00 55 1014.7